EN

Hourly Weather Alle

Today, 24 January, Sunday

Time Temperature Precipitation Wind Pressure Humidity
00:00 -4°C° 0.4 mm 6 mps 694 mmHg 96%
01:00 -4°C° 0.3 mm 5 mps 694 mmHg 95%
02:00 -3°C° 0.3 mm 4 mps 694 mmHg 95%
03:00 -3°C° 0.3 mm 4 mps 695 mmHg 95%
04:00 -4°C° 0.2 mm 4 mps 695 mmHg 95%
05:00 -4°C° 0.2 mm 3 mps 696 mmHg 95%
06:00 -4°C° 0.2 mm 3 mps 696 mmHg 95%
07:00 -4°C° 0 mm 3 mps 697 mmHg 93%
08:00 -3°C° 0 mm 2 mps 697 mmHg 91%
09:00 -3°C° 0 mm 2 mps 697 mmHg 90%
10:00 -2°C° 0 mm 2 mps 697 mmHg 85%
11:00 -1°C° 0 mm 2 mps 697 mmHg 80%
12:00 +2°C° 0 mm 1 mps 696 mmHg 75%
13:00 +2°C° 0 mm 1 mps 696 mmHg 78%
14:00 +2°C° 0 mm 1 mps 695 mmHg 81%
15:00 +1°C° 0 mm 1 mps 695 mmHg 85%
16:00 -1°C° 0.1 mm 2 mps 695 mmHg 87%
17:00 -2°C° 0.1 mm 2 mps 695 mmHg 89%
18:00 -2°C° 0.1 mm 3 mps 696 mmHg 92%
19:00 -2°C° 0.5 mm 3 mps 696 mmHg 93%
20:00 -4°C° 0.5 mm 3 mps 696 mmHg 94%
21:00 -4°C° 0.5 mm 4 mps 696 mmHg 95%
22:00 -4°C° 0.8 mm 4 mps 696 mmHg 95%
23:00 -4°C° 0.8 mm 4 mps 696 mmHg 95%

Tomorrow, 25 January, Monday

Time Temperature Precipitation Wind Pressure Humidity
00:00 -4°C° 0.8 mm 4 mps 697 mmHg 96%
01:00 -4°C° 0.4 mm 4 mps 697 mmHg 95%
02:00 -6°C° 0.4 mm 5 mps 698 mmHg 95%
03:00 -6°C° 0.4 mm 5 mps 698 mmHg 94%
04:00 -6°C° 0.3 mm 5 mps 699 mmHg 94%
05:00 -6°C° 0.3 mm 5 mps 700 mmHg 94%
06:00 -6°C° 0.3 mm 5 mps 701 mmHg 93%
07:00 -6°C° 0.2 mm 5 mps 701 mmHg 93%
08:00 -6°C° 0.2 mm 5 mps 702 mmHg 92%
09:00 -6°C° 0.2 mm 5 mps 703 mmHg 91%
10:00 -5°C° 0 mm 5 mps 703 mmHg 89%
11:00 -5°C° 0 mm 5 mps 704 mmHg 86%
12:00 -4°C° 0 mm 5 mps 704 mmHg 84%
13:00 -4°C° 0.3 mm 5 mps 704 mmHg 86%
14:00 -4°C° 0.3 mm 5 mps 704 mmHg 88%
15:00 -4°C° 0.3 mm 6 mps 704 mmHg 90%
16:00 -4°C° 0.2 mm 6 mps 705 mmHg 91%
17:00 -4°C° 0.2 mm 5 mps 705 mmHg 92%
18:00 -5°C° 0.2 mm 5 mps 705 mmHg 93%
19:00 -5°C° 0.2 mm 5 mps 706 mmHg 94%
20:00 -5°C° 0.2 mm 5 mps 706 mmHg 95%
21:00 -4°C° 0.2 mm 4 mps 707 mmHg 96%
22:00 -4°C° 0.3 mm 4 mps 707 mmHg 96%
23:00 -4°C° 0.3 mm 4 mps 707 mmHg 95%

Day after tomorrow, 26 January, Tuesday

Time Temperature Precipitation Wind Pressure Humidity
00:00 -4°C° 0.3 mm 3 mps 707 mmHg 95%
01:00 -4°C° 0.2 mm 3 mps 707 mmHg 95%
02:00 -4°C° 0.2 mm 3 mps 707 mmHg 95%
03:00 -4°C° 0.2 mm 3 mps 707 mmHg 95%
04:00 -4°C° 0.3 mm 3 mps 708 mmHg 96%
05:00 -4°C° 0.3 mm 3 mps 708 mmHg 96%
06:00 -4°C° 0.3 mm 3 mps 708 mmHg 97%
07:00 -4°C° 0.1 mm 3 mps 708 mmHg 96%
08:00 -2°C° 0.1 mm 3 mps 709 mmHg 94%
09:00 -2°C° 0.1 mm 3 mps 709 mmHg 93%
10:00 -2°C° 0 mm 3 mps 709 mmHg 93%
11:00 -1°C° 0 mm 2 mps 709 mmHg 93%
12:00 -1°C° 0 mm 2 mps 709 mmHg 94%
13:00 -1°C° 0 mm 2 mps 709 mmHg 94%
14:00 -1°C° 0 mm 2 mps 708 mmHg 94%
15:00 -1°C° 0 mm 2 mps 708 mmHg 94%
16:00 -1°C° 0 mm 2 mps 708 mmHg 94%
17:00 -1°C° 0 mm 2 mps 708 mmHg 93%
18:00 -2°C° 0 mm 2 mps 708 mmHg 93%
19:00 -2°C° 0.3 mm 2 mps 708 mmHg 94%
20:00 -2°C° 0.3 mm 2 mps 707 mmHg 95%
21:00 -2°C° 0.3 mm 2 mps 707 mmHg 96%
22:00 -1°C° 0.3 mm 3 mps 707 mmHg 96%
23:00 -1°C° 0.3 mm 3 mps 707 mmHg 97%

27 January, Wednesday

Time Temperature Precipitation Wind Pressure Humidity
00:00 -2°C° 0.3 mm 4 mps 706 mmHg 97%
01:00 -1°C° 0.2 mm 4 mps 706 mmHg 97%
02:00 -1°C° 0.2 mm 4 mps 706 mmHg 98%
03:00 0°C° 0.2 mm 4 mps 705 mmHg 98%
04:00 0°C° 0.1 mm 5 mps 706 mmHg 98%
05:00 0°C° 0.1 mm 5 mps 706 mmHg 98%
06:00 0°C° 0.1 mm 5 mps 706 mmHg 98%
07:00 0°C° 0.1 mm 4 mps 707 mmHg 98%
08:00 0°C° 0.1 mm 4 mps 708 mmHg 98%
09:00 +1°C° 0.1 mm 3 mps 708 mmHg 98%
10:00 +1°C° 0 mm 4 mps 709 mmHg 98%
11:00 +1°C° 0 mm 4 mps 709 mmHg 97%
12:00 +1°C° 0 mm 4 mps 709 mmHg 96%
13:00 +1°C° 0 mm 4 mps 710 mmHg 96%
14:00 +1°C° 0 mm 4 mps 710 mmHg 95%
15:00 +2°C° 0 mm 3 mps 710 mmHg 94%
16:00 +2°C° 0 mm 3 mps 710 mmHg 94%
17:00 +1°C° 0 mm 3 mps 711 mmHg 94%
18:00 +2°C° 0 mm 2 mps 711 mmHg 93%
19:00 +2°C° 0 mm 2 mps 711 mmHg 93%
20:00 +1°C° 0 mm 2 mps 711 mmHg 92%
21:00 +1°C° 0 mm 2 mps 711 mmHg 91%
22:00 +1°C° 0 mm 2 mps 710 mmHg 91%
23:00 +1°C° 0 mm 2 mps 709 mmHg 90%

28 January, Thursday

Time Temperature Precipitation Wind Pressure Humidity
00:00 +1°C° 0 mm 2 mps 709 mmHg 89%
01:00 +1°C° 0 mm 2 mps 708 mmHg 88%
02:00 +1°C° 0 mm 2 mps 708 mmHg 87%
03:00 +2°C° 0 mm 2 mps 708 mmHg 85%
04:00 +2°C° 0.6 mm 2 mps 707 mmHg 88%
05:00 +1°C° 0.6 mm 3 mps 707 mmHg 91%
06:00 +1°C° 0.6 mm 3 mps 707 mmHg 94%
07:00 +2°C° 0.1 mm 3 mps 707 mmHg 94%
08:00 +3°C° 0.1 mm 4 mps 707 mmHg 93%
09:00 +3°C° 0.1 mm 4 mps 707 mmHg 93%
10:00 +3°C° 0 mm 5 mps 707 mmHg 90%
11:00 +4°C° 0 mm 6 mps 707 mmHg 87%
12:00 +5°C° 0 mm 7 mps 706 mmHg 85%
13:00 +4°C° 1 mm 7 mps 706 mmHg 87%
14:00 +4°C° 1 mm 7 mps 705 mmHg 89%
15:00 +3°C° 1 mm 7 mps 705 mmHg 91%
16:00 +3°C° 1 mm 6 mps 706 mmHg 91%
17:00 +3°C° 1 mm 6 mps 706 mmHg 92%
18:00 +3°C° 1 mm 5 mps 707 mmHg 92%

29 January, Friday

Time Temperature Precipitation Wind Pressure Humidity
Show more